Regional Weather Roundup
Issued by NWS

Home | Current Version | Previous Version | Text Only | Print | Product List | Glossary Off
Versions: 1 2 3 4 5 6 7 8 9 10 11 12 13 14 15 16 17 18 19 20 21 22 23 24 25 26 27 28 29 30 31 32 33 34 35 36 37 38 39 40 41 42 43 44 45 46 47 48 49 50

000
ASUS43 KMKX 241221
RWRWI

WISCONSIN REGIONAL WEATHER ROUNDUP
NATIONAL WEATHER SERVICE MILWAUKEE/SULLIVAN WI
700 AM CDT SAT JUN 24 2017

NOTE: "FAIR" INDICATES FEW OR NO CLOUDS BELOW 12,000 FEET WITH NO
SIGNIFICANT WEATHER AND/OR OBSTRUCTIONS TO VISIBILITY.

WIZ001-002-006>008-014>016-023>028-241300-
NORTHWEST WISCONSIN

CITY           SKY/WX    TMP DP  RH WIND       PRES   REMARKS
SUPERIOR ARPT  NOT AVBL
ASHLAND        CLOUDY    54  51  90 SW6       29.88R
6HR MIN TEMP:  53; 6HR MAX TEMP:  58; 6HR PCP: TRACE;

HAYWARD        CLOUDY    53  47  79 VRB5      29.91R
6HR MIN TEMP:  52; 6HR MAX TEMP:  56;

SIREN          SUNNY     52  46  80 CALM      29.95R
6HR MIN TEMP:  49; 6HR MAX TEMP:  53;

CUMBERLAND     MOSUNNY   52  45  76 W10       29.95R
RICE LAKE      MOSUNNY   54  47  76 W9        29.95R
6HR MIN TEMP:  51; 6HR MAX TEMP:  58;

CHETEK         MOSUNNY   54  48  80 NW6       29.93S
6HR MIN TEMP:  51; 6HR MAX TEMP:  59;

LADYSMITH      CLOUDY    54  49  83 W10       29.93R
6HR MIN TEMP:  53; 6HR MAX TEMP:  58;

EAU CLAIRE     SUNNY     54  50  86 W10       29.93S
6HR MIN TEMP:  52; 6HR MAX TEMP:  59; 6HR PCP:  0.01;

MENOMONIE      SUNNY     55  49  82 W12       29.96R
6HR MIN TEMP:  52; 6HR MAX TEMP:  59;

NEW RICHMOND   CLOUDY    53  44  72 W9        29.97S
6HR MIN TEMP:  48; 6HR MAX TEMP:  55;

OSCEOLA        CLOUDY    54  44  68 W10       30.00R
6HR MIN TEMP:  51; 6HR MAX TEMP:  58;

$$

WIZ003>005-009-010-017-018-241300-
NORTH CENTRAL WISCONSIN

CITY           SKY/WX    TMP DP  RH WIND       PRES   REMARKS
MANITOWISH WTR CLOUDY    52  52 100 W9        29.87R
6HR MIN TEMP:  52; 6HR MAX TEMP:  56;

ARBOR VITAE    CLOUDY    57  52  85 NW7       29.86R
6HR MIN TEMP:  57; 6HR MAX TEMP:  57;

WOODRUFF       CLOUDY    57  52  85 NW7       29.86R
6HR MIN TEMP:  57; 6HR MAX TEMP:  57;

RHINELANDER    CLOUDY    55  51  86 W9        29.87S
6HR MIN TEMP:  53; 6HR MAX TEMP:  55;

EAGLE RIVER    CLOUDY    55  49  80 NW7       29.85S
6HR MIN TEMP:  55; 6HR MAX TEMP:  56;

LAND O LAKES   LGT RAIN  54  52  91 W5        29.87S
6HR MIN TEMP:  54; 6HR MAX TEMP:  56; 6HR PCP:  0.01;

PHILLIPS       CLOUDY    53  52  95 CALM      29.88S
6HR MIN TEMP:  53; 6HR MAX TEMP:  56;

TOMAHAWK       NOT AVBL
MEDFORD        CLOUDY    52  49  89 W10       29.91R
6HR MIN TEMP:  51; 6HR MAX TEMP:  57;

MERRILL        CLOUDY    55  51  86 NW10      29.89R
6HR MIN TEMP:  55; 6HR MAX TEMP:  56;

$$

WIZ029-030-035-036-043>047-241300-
CENTRAL WISCONSIN

CITY           SKY/WX    TMP DP  RH WIND       PRES   REMARKS
WAUSAU         MOSUNNY   57  51  80 W12       29.88R
6HR MIN TEMP:  55; 6HR MAX TEMP:  58;

MOSINEE        MOSUNNY   54  52  94 W10       29.91R
MARSHFIELD     MOSUNNY   53  49  86 W9        29.91R
6HR MIN TEMP:  52; 6HR MAX TEMP:  58; 6HR PCP: TRACE;

STEVENS POINT  PTSUNNY   55  50  85 W6        29.91R
6HR MIN TEMP:  55; 6HR MAX TEMP:  58;

WAUPACA        MOSUNNY   62  53  74 W9G18     29.89R
6HR MIN TEMP:  59; 6HR MAX TEMP:  61; 6HR PCP:  0.01;

WAUTOMA        CLOUDY    58  51  78 NW9       29.91R
6HR MIN TEMP:  58; 6HR MAX TEMP:  61;

WISC RAPIDS    MOSUNNY   57  51  80 NW8       29.93R
6HR MIN TEMP:  55; 6HR MAX TEMP:  61;

CAMP DOUGLAS   SUNNY     57  52  82 W10       29.93R
$$

WIZ011>013-019>022-031-037>040-048>050-241300-
NORTHEAST WISCONSIN

CITY           SKY/WX    TMP DP  RH WIND       PRES   REMARKS
ANTIGO         CLOUDY    54  52  94 W10       29.87S
6HR MIN TEMP:  53; 6HR MAX TEMP:  54;

SHAWANO        CLOUDY    60  54  80 W8        29.85S
6HR MIN TEMP:  58; 6HR MAX TEMP:  60;

OCONTO         CLOUDY    57  53  86 W8        29.84R
6HR MIN TEMP:  52; 6HR MAX TEMP:  57;

STURGEON BAY     N/A     60  54  80 NW10        N/A
6HR MIN TEMP:  59; 6HR MAX TEMP:  61;

GREEN BAY      CLOUDY    60  56  86 NW9       29.85R
6HR MIN TEMP:  58; 6HR MAX TEMP:  60; 6HR PCP: TRACE;

MANITOWOC      CLOUDY    60  55  83 W6        29.85S
6HR MIN TEMP:  59; 6HR MAX TEMP:  62; 6HR PCP: TRACE;

APPLETON       PTSUNNY   59  52  77 W12       29.85S
CLINTONVILLE   CLOUDY    59  52  77 W9        29.86S
OSHKOSH        PTSUNNY   60  54  80 W10G20    29.86S
6HR MIN TEMP:  59; 6HR MAX TEMP:  61;

$$

WIZ032>034-041-042-053>061-241300-
SOUTHWEST WISCONSIN

CITY           SKY/WX    TMP DP  RH WIND       PRES   REMARKS
LA CROSSE      MOSUNNY   63  51  65 NW9       29.95R
6HR MIN TEMP:  59; 6HR MAX TEMP:  68;

SPARTA         SUNNY     57  51  82 W7        29.95S
6HR MIN TEMP:  50; 6HR MAX TEMP:  61;

VIROQUA        MOSUNNY   56  53  92 W6        29.96S
6HR MIN TEMP:  54; 6HR MAX TEMP:  59;

BOSCOBEL       SUNNY     61  53  75 W5        29.97R
6HR MIN TEMP:  58; 6HR MAX TEMP:  65;

PRAIRIE DU CHI SUNNY     58  48  70 NW6       29.97S
6HR MIN TEMP:  56; 6HR MAX TEMP:  62;

PLATTEVILLE    SUNNY     58  55  89 W8        29.98R
6HR MIN TEMP:  56; 6HR MAX TEMP:  62;

$$

WIZ056-057-062-063-064-067-068-241300-
SOUTH CENTRAL WISCONSIN

CITY           SKY/WX    TMP DP  RH WIND       PRES   REMARKS
REEDSBURG      MOSUNNY   58  53  85 NW8       29.93S
6HR MIN TEMP:  56; 6HR MAX TEMP:  59;

BARABOO/DELLS  MOSUNNY   56  51  82 W8        29.93R
6HR MIN TEMP:  56; 6HR MAX TEMP:  58;

LONE ROCK      MOSUNNY   59  54  83 W7        29.95R
6HR MIN TEMP:  56; 6HR MAX TEMP:  61;

MINERAL POINT  SUNNY     59  55  88 W7        29.96R
MADISON        MOSUNNY   59  53  80 NW7       29.92R
6HR MIN TEMP:  57; 6HR MAX TEMP:  61;

MIDDLETON      SUNNY     60  54  80 NW7       29.93S
6HR MIN TEMP:  57; 6HR MAX TEMP:  61;

WATERTOWN      SUNNY     60  55  83 W8        29.90S
6HR MIN TEMP:  57; 6HR MAX TEMP:  61;

MONROE         MOSUNNY   59  52  77 W10       29.95R
JANESVILLE     MOSUNNY   61  55  82 NW12      29.92R
$$

WIZ051-052-058>065-066-070>072-241300-
SOUTHEAST WISCONSIN

CITY           SKY/WX    TMP DP  RH WIND       PRES   REMARKS
MILWAUKEE      MOSUNNY   63  54  72 NW14      29.88S
6HR MIN TEMP:  62; 6HR MAX TEMP:  66;

WAUKESHA       SUNNY     59  52  77 W12       29.91R
MILWAUKEE/TIMM SUNNY     61  50  67 W8        29.89R
RACINE         SUNNY     62  53  72 W10G18    29.89S
6HR MIN TEMP:  60; 6HR MAX TEMP:  63;

KENOSHA        SUNNY     62  55  77 W10       29.89S
6HR MIN TEMP:  58; 6HR MAX TEMP:  62;

FOND DU LAC    PTSUNNY   60  53  77 W7        29.89R
6HR MIN TEMP:  59; 6HR MAX TEMP:  62;

SHEBOYGAN      CLOUDY    61  56  83 NW10      29.86R
6HR MIN TEMP:  59; 6HR MAX TEMP:  62;

WEST BEND      MOSUNNY   59  54  82 W10       29.88R
JUNEAU         SUNNY     57  53  85 CALM      29.91R
6HR MIN TEMP:  57; 6HR MAX TEMP:  61;

$$

LSZ147-162-241300-
LAKE SUPERIOR

STATION/POSITION TIME  TEMP    WIND        PRES    WAVE
                       AIR SEA DIR/SP/G            HT/PER
                 (UTC) (F)     (DEG/KT/KT) (MB)    (FT/S)
W MID LAKE BUOY  1150   45 39  270/ 10/ 12 1010.0R   1/ 4
DEVILS ISLAND    1200   53     240/ 13/ 17 1011.0R
SAXON HARBOR     1140   56     210/  6/  9 1010.8S
$$

LMZ867-665-643>646-241300-
LAKE MICHIGAN

STATION/POSITION TIME  TEMP    WIND        PRES    WAVE
                       AIR SEA DIR/SP/G            HT/PER
                 (UTC) (F)     (DEG/KT/KT) (MB)    (FT/S)
CHAMBERS ISLAND  1140   58     300/  6/ 13 1009.1S
S GREEN BAY BUOY 1200   60     280/ 16/ 19 1010.0
N MID LAKE BUOY  1150   58 56  300/  8/  8 1009.5R   1/ 3
NORTHPORT PIER   1140   60     310/ 10/ 14 1009.5R
KEWAUNEE LAKESHO 1154   58     310/  5


USA.gov is the U.S. government's official web portal to all federal, state and local government web resources and services.